Weather observations for the past three days for
Viroqua Municipal Airport
Imperial (Metric)
Date Time (cdt) Wind (mph) Vis. (mi.) Weather Sky Cond. Temperature (ºF) Relative Humidity Wind Chill (°F) Heat Index (°F) Pressure Precipitation (in)
Air Dwpt 6 hour altimeter (in) sea level (mb) 1 hr 3 hr 6 hr
Max. Min.
25 02:15 S 15 G 22 10.00 Partly Cloudy SCT075 77 69.1 77% 79 29.64 0.0
25 01:55 S 14 G 18 10.00 Partly Cloudy SCT075 76.5 68.5 77% 78 29.63 0.0
25 01:35 S 15 G 21 10.00 Fair CLR 76.3 68 76% 78 29.63 0.0
25 01:15 S 15 G 24 10.00 Fair CLR 76.3 67.8 75% 78 29.63 0.0
25 00:55 S 16 G 23 10.00 Fair CLR 76.5 67.5 88.3 58.1 74% 78 29.63 0.0
25 00:35 S 14 G 18 10.00 Fair CLR 76.5 67.3 73% 78 29.65 0.0
25 00:15 S 14 G 24 10.00 Fair CLR 76.6 67.1 72% 78 29.68 0.0
24 23:55 S 15 G 24 10.00 Partly Cloudy SCT041 77 67.1 72% 79 29.69 0.0
24 23:35 S 17 G 29 10.00 Partly Cloudy SCT043 77 67.1 72% 79 29.7 0.0
24 23:15 S 18 G 30 10.00 Fair CLR 77 67.1 72% 79 29.69 0.0
24 22:55 S 22 G 30 10.00 Fair and Breezy CLR 76.8 67.3 72% 79 29.7 0.0
24 22:35 S 17 G 30 10.00 Fair CLR 76.3 67.8 75% 78 29.71 0.0
24 22:15 SE 17 G 24 10.00 Fair CLR 75.6 68.2 78% 77 29.73 0.0
24 21:55 SE 13 10.00 Partly Cloudy SCT045 75 68.7 81% 76 29.74 0.0
24 21:35 SE 12 G 17 10.00 Partly Cloudy SCT045 74.8 68.9 82% 29.75 0.0
24 21:15 SE 16 10.00 Fair CLR 75.2 69.1 81% 76 29.73 0.0
24 20:55 SE 12 10.00 Fair CLR 75.4 69.3 81% 76 29.75 0.0
24 20:35 S 13 10.00 Fair CLR 75.7 69.4 81% 77 29.73 0.0
24 20:15 S 12 G 20 10.00 Fair CLR 75.6 69.3 81% 76 29.74 0.0
24 19:55 S 16 G 24 10.00 Partly Cloudy SCT120 74.3 69.4 85% 29.73 0.0
24 19:35 S 16 G 25 10.00 Mostly Cloudy SCT030 SCT050 BKN120 73.4 69.4 87% 29.72 0.0
24 19:15 SW 5 10.00 Mostly Cloudy SCT026 SCT050 BKN110 72.3 68.5 88% 29.81 0.0
24 18:55 S 13 10.00 Mostly Cloudy SCT015 SCT033 BKN065 72.7 68.2 88.3 58.1 86% 29.79 0.0
24 18:35 S 14 G 20 0.25 Overcast OVC015 77.4 67.1 71% 79 29.81 0.0
24 18:15 SE 7 10.00 Partly Cloudy SCT120 79.2 66.2 65% 81 29.82 0.0
24 17:55 SE 13 G 20 10.00 Fair CLR 80.2 65.8 62% 82 29.81 0.0
24 17:35 S 14 10.00 Partly Cloudy SCT110 81.5 65.8 59% 84 29.81 0.0
24 17:15 SE 14 G 21 10.00 Partly Cloudy SCT080 SCT110 81.5 64.9 57% 83 29.82 0.0
24 16:55 SE 17 G 23 10.00 Partly Cloudy SCT080 82.2 64.8 56% 84 29.83 0.0
24 16:35 SE 12 G 20 10.00 Partly Cloudy SCT085 82.2 63.9 54% 84 29.84 0.0
24 16:15 S 14 G 21 10.00 Mostly Cloudy SCT050 BKN085 81.7 63.3 54% 83 29.86 0.0
24 15:55 SE 14 G 18 10.00 Mostly Cloudy BKN050 BKN085 82.2 63.1 53% 83 29.86 0.0
24 15:35 SE 14 G 20 10.00 Partly Cloudy SCT055 82.2 63 52% 83 29.87 0.0
24 15:15 SE 12 10.00 Partly Cloudy SCT065 82 63.7 54% 83 29.88 0.0
24 14:55 SE 12 10.00 Mostly Cloudy BKN065 82 63.5 54% 83 29.89 0.0
24 14:35 SE 14 G 20 10.00 Mostly Cloudy BKN065 81.5 63 53% 83 29.9 0.0
24 14:15 SE 14 G 20 10.00 Partly Cloudy SCT065 SCT080 80.6 61.9 53% 82 29.89 0.0
24 13:55 SE 13 10.00 Partly Cloudy SCT075 SCT085 79.7 63 57% 81 29.91 0.0
24 13:35 SE 12 10.00 Mostly Cloudy SCT065 SCT085 BKN090 78.3 62.6 59% 80 29.92 0.0
24 13:15 SE 13 10.00 Mostly Cloudy SCT065 BKN085 78.3 63.1 60% 80 29.93 0.0
24 12:55 SE 9 10.00 Mostly Cloudy BKN070 BKN075 BKN085 77.4 63.7 88.3 58.1 63% 79 29.93 0.0
24 12:35 SE 10 10.00 Overcast SCT049 BKN055 OVC070 76.5 63.7 65% 78 29.94 0.0
24 12:15 SE 10 10.00 Overcast BKN048 OVC055 75.4 63.1 66% 77 29.95 0.0
24 11:55 SE 8 10.00 Overcast OVC046 74.8 62.4 65% 29.95 0.0
24 11:35 S 8 10.00 Overcast OVC048 74.7 61.7 64% 29.96 0.0
24 11:15 SE 8 10.00 Overcast OVC050 75.9 61.3 61% 78 29.96 0.0
24 10:55 SE 9 10.00 Overcast BKN050 OVC080 76.3 61.5 60% 78 29.96 0.0
24 10:35 SE 8 10.00 Overcast BKN050 OVC060 75.7 61.2 61% 78 29.97 0.0
24 10:15 SE 7 10.00 Overcast BKN050 OVC070 74.7 61 63% 29.96 0.0
24 09:55 SE 10 10.00 Mostly Cloudy SCT050 BKN070 73.2 60.3 64% 29.95 0.0
24 09:35 SE 8 10.00 Mostly Cloudy SCT050 BKN070 73.2 59.9 63% 29.96 0.0
24 09:15 S 7 10.00 Partly Cloudy SCT055 SCT070 72.5 59.7 64% 29.96 0.0
24 08:55 SE 9 10.00 Partly Cloudy SCT055 71.2 59.9 68% 29.96 0.0
24 08:35 SE 9 10.00 Fair CLR 70 60.1 71% 29.96 0.0
24 08:15 SE 9 10.00 Partly Cloudy SCT060 68.5 59.4 73% 29.96 0.0
24 07:55 SE 12 G 17 10.00 Partly Cloudy SCT060 67.5 59.5 76% 29.96 0.0
24 07:35 SE 10 10.00 Fair CLR 66.7 59.5 78% 29.96 0.0
24 07:15 SE 9 10.00 Fair CLR 65.5 58.8 79% 29.96 0.0
24 06:55 SE 8 10.00 Partly Cloudy SCT002 64.8 59 88.3 58.1 82% 29.96 0.0
24 06:35 SE 7 10.00 Partly Cloudy SCT002 64.2 59.2 84% 29.96 0.0
24 06:15 E 6 10.00 Fair CLR 63.5 59.4 86% 29.95 0.0
24 05:55 E 7 10.00 Fair CLR 62.8 58.5 86% 29.95 0.0
24 05:35 E 7 10.00 Fair CLR 62.4 58.5 87% 29.94 0.0
24 05:15 E 7 10.00 Fair CLR 62.4 58.3 86% 29.94 0.0
24 04:55 E 6 10.00 Fair CLR 63 58.3 85% 29.94 0.0
24 04:35 E 5 10.00 Fair CLR 63.1 58.6 85% 29.94 0.0
24 04:15 E 6 10.00 Fair CLR 62.6 59.7 90% 29.93 0.0
24 03:55 E 6 10.00 Partly Cloudy SCT060 62.6 60.4 93% 29.93 0.0
24 03:35 Calm 10.00 Partly Cloudy SCT060 63.5 61.2 92% 29.94 0.0
24 03:15 Calm 10.00 Partly Cloudy SCT060 62.4 60.8 94% 29.94 0.0
24 02:55 Calm 10.00 Fair CLR 63 61 93% 29.94 0.0
24 02:35 Calm 10.00 Partly Cloudy SCT060 63 61 93% 29.94 0.0
24 02:15 Calm 10.00 Fair CLR 64.2 60.4 88% 29.93 0.0
24 01:55 Calm 10.00 Fair CLR 64.9 60.6 86% 29.93 0.0
24 01:35 Calm 10.00 Fair CLR 65.1 60.4 85% 29.93 0.0
24 01:15 Calm 10.00 Fair CLR 66.4 60.3 81% 29.93 0.0
24 00:55 Calm 10.00 Fair CLR 66.9 60.4 88.3 58.1 80% 29.93 0.0
24 00:35 Calm 10.00 Fair CLR 66.7 60.8 81% 29.93 0.0
24 00:15 Calm 10.00 Partly Cloudy SCT070 66.7 60.8 81% 29.93 0.0
23 23:55 Calm 10.00 Fair CLR 66.2 60.8 83% 29.93 0.0
23 23:35 N 7 10.00 Fair CLR 68.4 60.3 75% 29.93 0.0
23 23:15 W 3 10.00 Fair CLR 69.1 60.3 74% 29.92 0.0
23 22:55 W 3 10.00 Fair CLR 68.7 60.3 75% 29.91 0.0
23 22:35 SW 3 10.00 Fair CLR 68.7 60.3 75% 29.91 0.0
23 22:15 SW 5 10.00 Fair CLR 69.6 60.1 72% 29.91 0.0
23 21:55 SW 3 10.00 Partly Cloudy SCT060 70.2 60.8 72% 29.9 0.0
23 21:35 SW 3 10.00 Fair CLR 71.2 61 70% 29.9 0.0
23 21:15 Calm 10.00 Fair CLR 72.3 60.6 67% 29.89 0.0
23 20:55 Calm 10.00 Fair CLR 72.5 60.8 67% 29.89 0.0
23 20:35 W 5 10.00 Fair CLR 73.6 61.2 65% 29.89 0.0
23 19:35 W 5 10.00 Fair CLR 76.1 61.2 60% 78 29.89 0.0
23 18:55 W 5 10.00 Fair CLR 76.6 61.2 88.3 58.1 59% 78 29.89 0.0
23 18:35 NW 6 10.00 Fair CLR 76.6 60.6 58% 78 29.89 0.0
23 18:15 NW 7 10.00 Partly Cloudy SCT039 77 60.8 57% 79 29.88 0.0
23 17:55 NW 6 10.00 Partly Cloudy SCT039 76.1 60.6 59% 78 29.88 0.0
23 17:35 NW 8 10.00 Partly Cloudy SCT041 SCT047 76.5 61 59% 78 29.88 0.0
23 16:55 W 8 10.00 Partly Cloudy SCT038 76.1 60.8 59% 78 29.89 0.0
23 16:35 W 6 10.00 Fair CLR 75.6 60.6 60% 78 29.89 0.0
23 16:15 W 9 10.00 Partly Cloudy SCT034 SCT044 74.8 60.8 62% 29.89 0.0
23 15:55 NW 8 10.00 Mostly Cloudy BKN032 BKN039 BKN044 74.5 60.6 62% 29.89 0.0
23 15:35 NW 12 10.00 Partly Cloudy SCT032 SCT038 74.3 60.4 62% 29.89 0.0
23 15:15 W 7 10.00 Partly Cloudy SCT032 SCT040 74.3 60.3 62% 29.9 0.0
23 14:55 NW 10 10.00 Partly Cloudy SCT032 SCT040 73.6 60.1 63% 29.9 0.0
23 14:35 NW 10 G 16 10.00 Fair CLR 73.2 59.7 63% 29.9 0.0
23 14:15 NW 8 10.00 Partly Cloudy SCT029 72.9 59.9 64% 29.9 0.0
23 13:55 NW 12 10.00 Fair CLR 72.5 59.4 63% 29.9 0.0
23 13:35 NW 8 10.00 Fair CLR 71.8 58.1 62% 29.89 0.0
23 13:15 N 8 10.00 Fair CLR 70.9 57.7 63% 29.89 0.0
23 12:55 NW 10 10.00 Partly Cloudy SCT021 70 58.6 88.3 58.1 67% 29.9 0.0
23 12:35 NW 7 10.00 Partly Cloudy SCT018 68.7 59.9 74% 29.9 0.0
23 12:15 NW 8 10.00 Partly Cloudy SCT015 67.5 60.3 78% 29.9 0.0
23 11:55 NW 8 10.00 Partly Cloudy SCT013 66.2 59.5 79% 29.9 0.0
23 11:35 NW 8 10.00 Overcast OVC011 64.9 59.2 82% 29.9 0.0
23 11:15 NW 10 10.00 Overcast OVC011 63.5 59.5 87% 29.9 0.0
23 10:55 NW 10 10.00 Overcast OVC009 62.4 59.2 89% 29.9 0.0
23 10:35 NW 8 10.00 Overcast OVC007 60.8 58.6 93% 29.9 0.0
23 10:15 NW 9 10.00 Overcast OVC005 59.7 58.3 95% 29.88 0.0
23 09:55 NW 9 10.00 Overcast OVC005 59.7 58.1 94% 29.88 0.0
23 09:35 N 13 10.00 Overcast OVC005 59.4 58.3 96% 29.87 0.0
23 09:15 NW 12 G 17 7.00 Overcast OVC005 59.5 58.3 96% 29.87 0.0
23 08:55 NW 13 10.00 Overcast OVC005 59.7 58.5 96% 29.86 0.0
23 08:35 NW 14 G 18 7.00 Overcast OVC005 59.5 58.6 97% 29.86 0.0
23 08:15 NW 9 G 17 5.00 Overcast OVC005 59.4 58.5 97% 29.86 0.0
23 07:55 NW 14 G 20 7.00 Overcast OVC005 59.9 58.8 96% 29.85 0.0
23 07:35 NW 12 10.00 Overcast OVC007 60.3 59 96% 29.84 0.0
23 07:15 NW 12 10.00 Overcast OVC007 60.4 59 95% 29.83 0.0
23 06:55 NW 17 10.00 Overcast OVC007 60.8 59.2 88.3 58.1 94% 29.82 0.0
23 06:35 NW 9 10.00 Overcast OVC007 61 59.9 96% 29.82 0.0
23 06:15 NW 12 G 18 10.00 Overcast OVC007 61.2 60.1 96% 29.81 0.0
23 05:55 NW 9 G 16 10.00 Overcast BKN007 OVC011 61.3 60.3 96% 29.8 0.0
23 05:35 NW 13 7.00 Overcast OVC005 61.5 60.6 97% 29.79 0.0
23 05:15 NW 12 7.00 Overcast OVC007 61.9 61.2 98% 29.79 0.0
23 04:55 NW 12 7.00 Overcast OVC007 62.2 61.5 98% 29.78 0.0
23 04:35 NW 12 5.00 Overcast OVC005 62.6 61.7 97% 29.78 0.0
23 04:15 NW 15 G 21 2.50 Overcast OVC005 63.1 62.4 98% 29.78 0.0
23 03:55 NW 12 3.00 Overcast OVC005 63.9 63.1 98% 29.78 0.0
23 03:35 NW 7 3.00 Overcast BKN005 OVC009 64.6 63.3 96% 29.77 0.0
23 03:15 NW 12 10.00 Overcast SCT009 BKN014 OVC023 65.1 63.5 95% 29.78 0.0
23 02:55 NW 14 G 18 10.00 Overcast SCT009 BKN016 OVC023 65.5 63.9 95% 29.77 0.0
23 02:35 NW 9 G 16 10.00 Overcast SCT009 SCT014 OVC022 65.5 64 95% 29.77 0.0
23 02:15 NW 12 G 17 7.00 Overcast OVC009 66 64.6 95% 29.77 0.0
23 01:55 W 10 10.00 Overcast BKN007 BKN012 OVC023 66.9 65.1 94% 29.77 0.0
23 01:35 NW 13 10.00 Overcast SCT010 BKN018 OVC023 67.3 65.3 93% 29.76 0.0
23 01:15 NW 12 G 17 10.00 Overcast BKN010 BKN015 OVC025 67.5 66.4 96% 29.75 0.0
23 00:55 NW 10 10.00 Overcast OVC007 67.8 66.9 88.3 58.1 97% 29.75 0.0
23 00:35 W 7 10.00 Overcast BKN005 OVC012 67.6 67.1 98% 29.75 0.0
23 00:15 NW 9 10.00 Overcast BKN005 OVC033 68 67.3 98% 29.75 0.0
22 23:55 NW 8 10.00 Overcast BKN005 BKN009 OVC016 67.8 67.3 98% 29.75 0.0
22 23:35 NW 6 10.00 Overcast BKN003 BKN015 OVC023 68 67.3 98% 29.75 0.0
22 23:15 NW 6 10.00 Mostly Cloudy BKN005 BKN026 BKN044 68 67.5 98% 29.75 0.0
22 22:55 NW 6 10.00 Overcast BKN005 OVC028 68.2 67.6 98% 29.75 0.0
22 22:35 NW 6 10.00 Overcast BKN005 BKN010 OVC028 68.4 67.8 98% 29.75 0.0
22 22:15 NW 6 10.00 Overcast BKN005 BKN010 OVC025 68.5 68 98% 29.75 0.0
22 21:55 NW 5 10.00 Overcast SCT005 SCT009 OVC025 68.4 68 99% 29.75 0.0
22 21:35 NW 6 10.00 Mostly Cloudy SCT005 BKN009 BKN025 68.4 67.8 98% 29.74 0.0
22 21:15 Calm 10.00 Overcast OVC005 68.9 68 97% 29.72 0.0
22 20:55 Calm 10.00 Mostly Cloudy BKN007 BKN100 69.1 68 96% 29.72 0.0
22 20:40 NW 5 10.00 Overcast SCT007 OVC100 69.6 68.2 95% 29.72 0.0
22 20:15 Calm 10.00 Partly Cloudy SCT100 70 68.4 95% 29.72 0.0
22 19:55 N 3 3.00 Mostly Cloudy SCT012 SCT027 BKN070 69.8 68.2 95% 29.71 0.0
22 19:35 NW 8 10.00 Mostly Cloudy SCT008 BKN011 BKN075 70.2 68.5 95% 29.73 0.0
22 19:15 NW 6 10.00 Mostly Cloudy BKN008 BKN014 BKN100 70.3 68.5 94% 29.72 0.0
22 18:55 NW 7 10.00 Mostly Cloudy SCT008 BKN100 70.5 68.4 88.3 58.1 93% 29.72 0.0
22 18:35 NE 3 10.00 Partly Cloudy SCT028 SCT060 SCT090 70.5 68.9 95% 29.7 0.0
22 18:15 NE 5 10.00 Overcast SCT030 BKN049 OVC110 69.4 68.4 96% 29.71 0.0
22 17:55 E 6 1.00 Overcast BKN008 OVC037 69.3 68.2 96% 29.72 0.0
22 17:35 NW 16 G 21 1.00 Overcast BKN006 OVC011 70.3 69.1 96% 29.76 0.0
22 17:20 N 14 G 23 0.25 Overcast BKN008 OVC014 71.1 69.6 95% 29.75 0.0
22 16:55 N 6 1.25 Mostly Cloudy SCT006 SCT013 BKN019 71.8 69.4 92% 29.73 0.0
22 16:35 E 3 0.25 Overcast BKN006 OVC016 73.8 69.1 85% 29.75 0.0
22 16:15 N 7 10.00 Overcast OVC055 75.7 68.2 77% 77 29.74 0.0
22 15:55 N 5 10.00 Overcast OVC065 76.1 67.5 75% 78 29.76 0.0
22 15:35 NW 6 10.00 Overcast OVC065 76.5 67.5 74% 78 29.76 0.0
22 15:15 W 5 10.00 Overcast OVC075 76.3 67.5 74% 78 29.78 0.0
22 14:55 W 6 10.00 Overcast OVC075 76.8 67.1 72% 79 29.79 0.0
22 14:35 W 6 10.00 Overcast SCT027 OVC080 76.5 67.5 74% 78 29.79 0.0
22 14:15 W 6 10.00 Overcast SCT023 BKN029 OVC100 77 68.2 74% 79 29.8 0.0
22 13:55 W 9 10.00 Overcast BKN021 OVC027 77 68.7 76% 79 29.81 0.0
22 13:35 NW 9 10.00 Overcast BKN019 OVC025 77 68.9 76% 79 29.81 0.0
22 13:15 W 8 10.00 Overcast BKN017 BKN026 OVC031 77 69.1 77% 79 29.81 0.0
22 12:55 W 8 10.00 Overcast BKN017 BKN024 OVC037 77.4 69.3 88.3 58.1 76% 79 29.82 0.0
22 12:35 W 9 10.00 Mostly Cloudy SCT019 SCT024 BKN030 77 68.7 76% 79 29.82 0.0
22 12:15 W 12 10.00 Mostly Cloudy BKN021 BKN032 77.2 69.1 76% 79 29.82 0.0
22 11:55 W 14 G 20 10.00 Mostly Cloudy BKN014 BKN023 BKN029 75.6 70.2 83% 76 29.82 0.0
22 11:35 W 7 10.00 Overcast BKN012 BKN018 OVC024 74.1 69.6 86% 29.83 0.0
22 11:15 W 14 G 21 10.00 Overcast BKN014 OVC025 73.9 69.4 86% 29.83 0.0
22 11:00 W 13 G 23 10.00 Overcast BKN014 OVC019 73.6 69.4 87% 29.82 0.0
22 10:35 W 17 G 24 10.00 Overcast OVC012 73.9 70 88% 29.83 0.0
22 10:15 SW 12 10.00 Overcast OVC012 73.6 70.2 89% 29.83 0.0
22 09:55 SW 13 G 20 10.00 Mostly Cloudy BKN010 72.9 70.3 92% 29.84 0.0
22 09:35 SW 12 10.00 Mostly Cloudy BKN006 71.4 69.8 95% 29.84 0.0
22 09:15 SW 12 10.00 Mostly Cloudy BKN006 70.5 69.3 96% 29.84 0.0
22 08:55 SW 13 10.00 Overcast OVC006 70.2 69.1 96% 29.84 0.0
22 08:35 SW 18 G 24 2.50 Overcast OVC006 70.5 69.6 97% 29.85 0.0
22 08:15 S 13 G 23 2.50 Overcast OVC006 71.2 70.2 96% 29.85 0.0
22 07:55 S 16 G 21 5.00 Overcast BKN006 BKN026 OVC075 71.6 70.5 96% 29.85 0.0
22 07:35 S 14 G 24 5.00 Overcast BKN006 OVC011 71.6 70.7 97% 29.84 0.0
22 07:15 S 13 G 17 5.00 Overcast BKN008 BKN012 OVC023 71.6 70.7 97% 29.85 0.0
22 06:55 S 13 G 18 4.00 Overcast BKN009 BKN022 OVC080 71.4 70.7 88.3 58.1 98% 29.86 0.0
22 06:35 S 10 2.00 Overcast BKN006 BKN017 OVC050 71.1 70.5 98% 29.86 0.0
22 06:15 S 10 G 16 3.00 Overcast SCT009 BKN017 OVC070 70.9 70.2 98% 29.88 0.0
22 05:55 SW 10 4.00 Overcast SCT006 BKN015 OVC042 70.9 70.2 98% 29.9 0.0
22 05:35 S 8 G 16 4.00 Overcast SCT006 SCT018 OVC044 70.9 70 97% 29.9 0.0
22 05:15 S 12 5.00 Overcast SCT004 BKN014 OVC045 70.5 69.8 98% 29.89 0.0
22 04:55 S 12 5.00 Overcast BKN004 OVC046 70.3 69.8 98% 29.89 0.0
22 04:35 SE 13 G 17 5.00 Overcast OVC004 70 69.3 98% 29.89 0.0
22 04:15 SE 14 G 20 7.00 Overcast OVC004 69.8 68.9 97% 29.9 0.0
22 03:55 SE 14 G 18 7.00 Overcast OVC004 69.8 68.9 97% 29.91 0.0
22 03:35 SE 13 10.00 Overcast OVC004 69.3 68.9 99% 29.93 0.0
22 03:15 SE 13 10.00 Overcast BKN004 BKN037 OVC100 69.1 68.5 98% 29.93 0.0
22 02:55 SE 12 10.00 Mostly Cloudy SCT004 SCT035 BKN100 68.9 68.4 98% 29.95 0.0
22 02:35 SE 13 10.00 Overcast BKN004 BKN035 OVC110 68.9 68.2 98% 29.96 0.0
Date Time (cdt) Wind (mph) Vis. (mi.) Weather Sky Cond. Air Dwpt Max. Min. Relative Humidity Wind Chill (°F) Heat Index (°F) altimeter (in) sea level (mb) 1 hr 3 hr 6 hr
6 hour
Temperature (ºF) Pressure Precipitation (in)